Location: ??
(34.7252°N, 135.5457°E)
Time: 09:28:29
(UTC+00:00)

FENGYUN 3A - Pass Details

Date: 24 September 2020
Orbit: 824 x 836 km, 98.4° (Epoch: 23 October)

Event Time Altitude Azimuth Distance (km) Brightness Sun altitude
Rises 19:45:44 0° 10° (N) 3,372 7.1 -13.6°
Reaches altitude 10° 19:48:05 10° 8° (N) 2,437 6.3 -13.1°
Maximum altitude 19:53:28 72° 285° (WNW) 874 3.6 -12.0°
Drops below altitude 10° 19:58:49 10° 202° (SSW) 2,430 5.8 -10.9°
Sets 20:01:10 0° 200° (SSW) 3,362 6.6 -10.4°
